STARLINK-2648, 48679

Orbit data source: Space-Track

STARLINK-2648, 48679 is a payload satellite owned by SpaceX/Seattle (US) in LEO that was launched on Wed, 26 May 2021 UTC via an FALCON 9 launch vehicle from the Air Force Eastern Test Range (AFETR). Payload-class satellites include a variety of spacecraft equipped with specific instruments for various scientific and technological missions. These include communications satellites like Starlink; space stations such as the ISS; scientific satellites like the Hubble; Earth observation satellites from companies like Planet Labs, Umbra, and HawkEye 360; GPS; miniature CubeSats for education and research; and military/defense satellites.

Loading next visibility...
Identifier
48679, 2021-044AT
Orbit
LEO
Country
Flag of USUS
Related business
Manufacturer
SpaceX/Seattle
Mission
Operational Commercial Communications
Bus & Motor
STARLINK, Unknown motor
Mass
260 kg wet, ~248 kg dry
Launch date (UTC)
2021-05-26 (5 years ago)
Launch vehicle
FALCON 9
Launch site
Air Force Eastern Test Range (AFETR)
Object type
Payload
Rocket body
Debris
Shape & HBR
Box + 1 Pan, 10.1 m
Radar Cross Section
13.562 m², Large (>1 m²)

Expand to show TLE details & history
Last TLE update: 23 hours ago

TLE from 23 hours ago
0 STARLINK-2648
1 48679U 21044AT  25348.67171255  .00000925  00000-0  81000-4 0  9990
2 48679  53.0548 133.2754 0001240  89.8501 270.2630 15.06392242251039
Epoch: 2025-12-14T16:07Z
TLE epoch observation values (Epoch: 2025-12-14T16:07:15.964Z)
Latitude
-0.00002°
Longitude
167.87759°
Altitude
548.111 km
Speed
7.589 km/s
True Right ascension
08h 53m 06s
True Declination
0° 00' 00"
Sunlit
Object was in full shadow at epoch
Visualization orbit readout
Latitude
Unknown
Longitude
Unknown
Altitude
Unknown
Speed
Unknown
Apparent Right ascension
Unknown
Apparent Declination
Unknown
Sunlit
N/A
Visualization observer readout
Local Sidereal Time
13:18:52
Azimuth
Unknown
Elevation
Unknown
Doppler factor
Unknown
Orbital elements
Apogee altitude
548.365 km
Perigee altitude
546.647 km
Semi-major axis
6,925.643 km
Eccentricity
0.00012
Inclination
53.0548°
RAAN
133.2754°
Arg. of periapsis
89.8501°
True anomaly
270.24879°
Mean anomaly
270.263°
Eccentric anomaly
270.2559°
Mean motion
3.76576 °/min
Orbital period
95.6 mins
BSTAR
0.000081
Loading maneuver chart data...
Computing Atmospheric mass density...
Loading historical data...
Loading historical data...
Loading historical data...
Loading historical data...
Loading historical data...
Loading historical data...
Loading historical data...

Documentation

Showing up to 5 results
|